CAPE
0 0 0 0 0 0 0 0 0 0 0 0 0 0 0 0 0 0 0 0 0 0 0 0 0 0 0 0 0 0 0 0 0 0 6 25 70 101 108 117 78 17 0 0 3 0 0 0 0 0 0 0 0 0
0 0 0 0 0 0 0 0 0 0 0 0 0 0 0 0 0 0 0 0 0 0 0 0 0 0 0 0 0 0 0 0 0 0 0 0 1 9 6 1 0 0 7 60 104 1 41 0 0 0 0 0 0 0
0 0 0 0 0 0 0 0 0 0 0 0 0 0 0 0 0 0 0 0 0 0 0 0 0 0 0 0 0 0 0 0 0 0 0 0 0 0 0 0 0 0 19 0 0 1 27 2 0 0 0 0 0 0
0 0 0 0 0 0 0 0 0 0 0 0 0 0 0 0 0 0 0 0 0 0 0 0 0 0 0 0 0 0 0 0 0 0 0 0 0 0 0 0 0 0 0 0 0 0 1 0 0 19 7 13 18 22
0 0 0 0 0 0 0 0 0 0 0 0 0 0 0 0 0 0 0 0 0 0 0 0 0 0 0 0 0 0 0 0 0 0 0 0 0 0 0 0 0 0 0 0 0 0 10 0 0 16 79 112 105 81
0 0 0 0 0 0 0 0 0 0 0 0 0 0 0 0 0 0 0 0 0 0 0 0 0 0 0 0 0 0 0 0 0 0 0 0 0 0 0 0 0 0 0 0 0 0 0 0 0 26 117 109 89 17
0 0 0 0 0 0 0 0 0 0 0 0 0 0 0 0 0 0 0 0 0 0 0 0 0 0 0 0 0 0 0 0 0 0 0 0 0 0 0 0 0 2 9 5 0 11 0 58 34 43 73 75 63 65
0 0 0 0 0 0 0 0 0 0 0 0 0 0 0 0 0 0 0 0 0 0 0 0 0 0 0 0 0 0 0 0 0 0 0 0 0 0 0 0 32 18 7 4 14 7 4 24 60 63 48 44 47 62
0 0 0 0 0 0 0 0 0 0 0 0 0 0 0 0 0 0 0 0 0 0 0 0 0 0 0 0 0 0 0 0 0 0 0 0 0 0 63 65 56 5 0 0 0 3 12 15 24 42 31 38 43 55
2 1 0 0 0 0 0 0 0 0 0 0 0 0 0 0 0 0 0 0 0 0 0 0 0 0 0 0 0 0 0 0 0 0 0 0 0 66 6 0 5 7 3 3 3 2 0 3 2 1 10 37 55 80
1 1 0 0 0 0 0 0 0 0 0 0 0 0 0 0 0 0 0 0 0 0 0 0 0 0 0 0 0 0 0 0 0 0 0 0 2 112 0 0 1 16 10 0 2 4 6 8 2 1 0 11 38 87
1 1 1 0 0 0 0 0 0 0 0 0 0 0 0 0 0 0 0 0 0 0 0 0 0 0 0 0 0 0 0 0 0 0 0 0 7 2 1 1 11 16 21 6 2 3 0 0 0 0 3 14 24 74
1 1 2 0 0 0 0 0 0 0 0 1 0 0 0 0 0 0 0 0 0 0 0 0 0 0 0 0 0 0 0 0 0 0 0 8 5 0 1 8 5 1 1 6 9 10 13 19 10 6 10 28 39 79
2 2 2 0 0 0 0 0 0 0 0 0 0 0 0 0 0 0 0 9 0 0 0 0 5 0 0 0 0 0 0 0 0 0 10 1 0 0 0 0 0 2 5 4 14 31 38 41 34 27 16 40 36 147
0 2 1 0 0 0 0 0 0 0 0 0 0 0 0 0 0 0 0 0 0 0 0 0 0 0 0 0 0 0 0 0 0 6 3 7 0 0 2 0 3 13 27 34 28 27 25 19 26 42 38 41 70 201
1 0 0 1 0 0 0 0 0 1 0 0 0 0 0 0 0 0 0 10 0 0 0 2 3 0 0 0 0 0 0 0 19 13 14 7 8 9 10 25 32 31 10 23 19 30 36 35 28 39 36 129 133 228
1 7 0 0 0 0 0 0 9 3 0 0 0 0 0 0 12 19 1 29 0 0 1 8 1 0 0 0 0 0 2 19 13 5 2 3 14 17 8 12 34 23 10 18 6 31 58 50 68 83 24 199 284 118
2 10 0 0 0 0 4 1 12 3 0 0 0 0 0 0 2 2 4 2 0 5 26 18 11 0 0 0 0 13 9 1 0 4 18 24 5 10 34 26 33 25 41 46 34 16 25 16 28 29 37 278 88 1
7 5 0 0 2 1 3 9 4 16 3 7 0 0 0 0 0 1 1 0 0 9 20 11 1 0 1 4 1 2 1 9 23 20 17 22 29 39 28 43 40 52 43 33 24 26 5 4 4 3 2 1 0 0
0 0 0 0 1 3 0 7 10 7 8 19 0 0 0 0 0 0 0 2 5 3 11 7 2 7 3 10 7 1 7 20 28 31 16 13 35 33 28 3 32 41 32 35 17 0 5 1 0 1 0 0 0 0
0 5 0 1 4 2 1 2 6 2 0 4 13 12 5 0 0 0 0 4 21 25 20 21 23 25 13 7 0 19 40 46 31 20 37 34 22 45 35 21 20 26 23 22 24 25 5 9 0 0 0 0 0 0
3 0 1 1 3 15 6 3 2 0 8 5 13 8 2 4 0 0 0 0 4 10 11 24 27 50 32 35 53 71 48 48 43 51 15 13 36 54 29 12 14 11 26 30 23 13 2 0 4 4 0 2 1 0
0 0 1 3 12 2 0 10 18 15 6 2 9 11 13 8 12 15 2 0 0 3 8 20 26 50 38 57 55 68 99 88 66 25 141 97 55 42 11 2 7 7 4 2 2 7 11 4 11 8 11 9 3 1
0 1 3 4 17 2 13 22 19 21 5 2 5 1 6 5 15 20 4 4 0 0 11 86 25 14 58 82 36 75 271 259 262 89 43 23 0 2 0 8 10 4 1 2 2 8 13 5 3 5 0 0 0 0
0 0 2 0 16 14 13 14 22 16 1 1 3 2 18 22 20 11 29 79 34 10 37 45 42 91 33 116 121 35 61 38 27 80 4 0 0 4 0 4 0 0 13 3 7 9 6 5 3 13 5 0 0 0
1 3 1 6 8 7 21 17 8 13 8 4 6 9 30 50 17 57 181 270 351 266 183 142 108 169 132 149 203 113 37 64 97 128 100 2 0 0 0 12 15 8 18 16 14 9 4 1 2 2 17 9 1 1
1 17 26 23 19 17 19 18 24 17 8 24 8 23 73 59 56 95 187 271 206 184 210 208 315 387 381 169 273 167 30 7 43 56 88 42 0 1 0 7 30 12 10 12 20 6 14 9 8 9 15 13 12 6
1 12 16 25 28 16 22 2 0 16 27 20 2 19 13 5 6 30 32 162 77 201 193 165 160 146 151 21 1 0 0 0 23 243 193 7 0 0 0 21 0 0 0 0 0 10 2 12 17 15 11 11 12 8
8 9 13 26 27 0 12 17 7 9 0 0 7 15 0 0 0 2 53 57 136 74 138 181 131 77 3 0 0 0 0 13 61 47 12 3 0 0 0 3 20 18 6 4 0 0 0 0 0 0 0 5 11 9
15 16 20 15 26 8 3 16 13 0 3 2 21 13 19 28 10 0 56 160 109 154 72 79 102 51 2 0 0 0 0 0 0 0 8 0 0 0 1 1 8 5 1 14 19 5 0 0 5 7 8 13 8 7
11 22 19 21 18 15 1 16 1 1 4 13 61 1 3 1 0 0 9 34 34 48 1 0 4 1 0 0 0 1 1 0 0 0 1 0 0 0 0 0 1 5 3 0 0 0 0 2 12 9 8 10 10 7
8 15 18 11 12 8 9 12 15 2 1 6 13 24 13 0 0 0 0 25 10 1 0 0 0 0 0 0 0 0 0 0 0 0 0 0 0 0 0 0 0 0 0 0 0 0 0 0 0 1 5 5 4 8
12 9 8 11 16 11 21 19 14 10 9 7 10 17 2 2 7 10 113 107 107 53 0 0 0 0 0 0 0 0 0 0 0 0 0 0 0 0 0 0 0 0 0 0 0 0 1 2 4 5 7 9 9 11
CIN
-0 -0 -0 -0 -0 -0 -0 -0 -0 -0 -0 -0 -0 -0 -0 -0 -0 -0 -0 -0 -0 -0 -0 -0 -0 -0 -0 -0 -0 -0 -0 -0 -0 -0 -17 -11 -9 -8 -6 -7 -11 -42 -0 -0 -20 -0 -0 -0 -0 -0 -0 -0 -0 -0
-0 -0 -0 -0 -0 -0 -0 -0 -0 -0 -0 -0 -0 -0 -0 -0 -0 -0 -0 -0 -0 -0 -0 -0 -0 -0 -0 -0 -0 -0 -0 -0 -0 -0 -0 -0 -107 -85 -88 -10 -12 -11 -113 -139 -92 -5 -200 -0 -0 -0 -0 -0 -0 -0
-0 -0 -0 -0 -0 -0 -0 -0 -0 -0 -0 -0 -0 -0 -0 -0 -0 -0 -0 -0 -0 -0 -0 -0 -0 -0 -0 -0 -0 -0 -0 -0 -0 -0 -0 -0 -0 -0 -0 -0 -0 -0 -178 -48 -0 -67 -141 -291 -0 -0 -0 -0 -0 -0
-0 -0 -0 -0 -0 -0 -0 -0 -0 -0 -0 -0 -0 -0 -0 -0 -0 -0 -0 -0 -0 -0 -0 -0 -0 -0 -0 -0 -0 -0 -0 -0 -0 -0 -0 -0 -0 -0 -0 -0 -0 -0 -0 -0 -0 -0 -105 -0 -0 -424 -421 -351 -283 -213
-0 -0 -0 -0 -0 -0 -0 -0 -0 -0 -0 -0 -0 -0 -0 -0 -0 -0 -0 -0 -0 -0 -0 -0 -0 -0 -0 -0 -0 -0 -0 -0 -0 -0 -0 -0 -0 -0 -0 -0 -0 -0 -0 -0 -0 -0 -379 -0 -0 -333 -196 -113 -84 -84
-0 -0 -0 -0 -0 -0 -0 -0 -0 -0 -0 -0 -0 -0 -0 -0 -0 -0 -0 -0 -0 -0 -0 -0 -0 -0 -0 -0 -0 -0 -0 -0 -0 -0 -0 -0 -0 -0 -0 -0 -0 -0 -0 -0 -0 -0 -0 -0 -0 -200 -87 -75 -61 -101
-0 -0 -0 -0 -0 -0 -0 -0 -0 -0 -0 -0 -0 -0 -0 -0 -0 -0 -0 -0 -0 -0 -0 -0 -0 -0 -0 -0 -0 -0 -0 -0 -0 -0 -0 -0 -0 -0 -0 -0 -0 -174 -359 -376 -0 -304 -0 -152 -133 -160 -91 -67 -64 -69
-0 -0 -0 -0 -0 -0 -0 -0 -0 -0 -0 -0 -0 -0 -0 -0 -0 -0 -0 -0 -0 -0 -0 -0 -0 -0 -0 -0 -0 -0 -0 -0 -0 -0 -0 -0 -0 -0 -0 -0 -269 -293 -231 -305 -244 -104 -1 -2 -77 -45 -4 -6 -4 -2
-0 -0 -0 -0 -0 -0 -0 -0 -0 -0 -0 -0 -0 -0 -0 -0 -0 -0 -0 -0 -0 -0 -0 -0 -0 -0 -0 -0 -0 -0 -0 -0 -0 -0 -0 -0 -0 -0 -167 -198 -203 -221 -0 -0 -0 -1 -1 -2 -2 -3 -1 -1 -3 -3
-13 -13 -0 -0 -0 -0 -0 -0 -0 -0 -0 -0 -0 -0 -0 -0 -0 -0 -0 -0 -0 -0 -0 -0 -0 -0 -0 -0 -0 -0 -0 -0 -0 -0 -0 -0 -0 -188 -254 -0 -2 -1 -0 -1 -1 -1 -0 -3 -1 -1 -2 -1 -2 -1
-16 -13 -1 -0 -0 -0 -0 -0 -0 -0 -0 -0 -0 -0 -0 -0 -0 -0 -0 -0 -0 -0 -0 -0 -0 -0 -0 -0 -0 -0 -0 -0 -0 -0 -0 -0 -0 -145 -0 -0 -0 -1 -1 -0 -0 -1 -1 -1 -2 -3 -2 -10 -1 -3
-15 -15 -9 -0 -0 -0 -0 -0 -0 -0 -0 -0 -0 -0 -0 -0 -0 -0 -0 -0 -0 -0 -0 -0 -0 -0 -0 -0 -0 -0 -0 -0 -0 -0 -0 -0 -28 -0 -0 -2 -1 -0 -0 -0 -2 -2 -0 -1 -0 -0 -3 -2 -2 -19
-16 -14 -16 -0 -0 -0 -0 -0 -0 -0 -0 -0 -0 -0 -0 -0 -0 -0 -0 -0 -0 -0 -0 -0 -0 -0 -0 -0 -0 -0 -0 -0 -0 -0 -0 -10 -1 -0 -1 -1 -1 -0 -1 -1 -1 -2 -1 -1 -2 -2 -2 -1 -2 -22
-13 -14 -19 -0 -0 -0 -0 -0 -0 -0 -0 -0 -0 -0 -0 -0 -0 -0 -0 -2 -0 -0 -0 -0 -2 -0 -0 -0 -0 -0 -0 -0 -0 -0 -3 -1 -0 -0 -0 -0 -0 -1 -1 -1 -1 -1 -1 -1 -2 -2 -1 -1 -2 -1
-15 -15 -20 -0 -0 -0 -0 -0 -0 -0 -0 -0 -0 -0 -0 -0 -0 -0 -0 -0 -0 -0 -0 -0 -0 -0 -0 -0 -0 -0 -0 -0 -0 -3 -4 -8 -0 -0 -0 -0 -1 -1 -0 -1 -1 -1 -0 -0 -1 -1 -1 -3 -9 -1
-7 -6 -0 -0 -0 -0 -0 -0 -0 -0 -0 -0 -0 -0 -0 -0 -0 -0 -0 -1 -0 -0 -0 -0 -2 -0 -0 -0 -0 -0 -0 -0 -4 -2 -2 -3 -1 -1 -0 -1 -0 -0 -7 -2 -3 -2 -73 -45 -53 -35 -1 -10 -4 -1
-0 -0 -0 -0 -0 -0 -0 -0 -1 -0 -0 -0 -0 -0 -0 -0 -3 -1 -0 -3 -0 -0 -2 -2 -0 -0 -0 -0 -0 -0 -1 -4 -1 -2 -2 -2 -1 -0 -0 -7 -0 -5 -15 -16 -25 -24 -67 -77 -46 -26 -19 -0 -0 -0
-0 -0 -0 -0 -0 -0 -0 -0 -0 -1 -0 -0 -0 -0 -0 -0 -1 -1 -2 -1 -0 -1 -1 -3 -3 -0 -0 -0 -0 -1 -1 -2 -1 -1 -2 -3 -0 -0 -0 -0 -0 -2 -0 -0 -0 -1 -14 -0 -98 -69 -2 -4 -0 -0
-0 -0 -0 -0 -1 -0 -0 -0 -0 -0 -1 -2 -0 -0 -0 -0 -0 -1 -0 -0 -0 -1 -1 -1 -1 -0 -1 -2 -2 -1 -2 -2 -2 -1 -1 -2 -0 -0 -0 -0 -0 -0 -0 -0 -0 -0 -0 -0 -0 -0 -2 -0 -0 -0
-0 -0 -0 -0 -2 -0 -0 -0 -0 -1 -3 -1 -0 -0 -0 -0 -0 -0 -0 -2 -2 -2 -1 -1 -2 -1 -1 -1 -3 -2 -1 -1 -1 -0 -2 -3 -1 -0 -0 -0 -0 -0 -0 -0 -0 -0 -0 -0 -0 -0 -0 -0 -0 -0
-0 -0 -0 -0 -0 -0 -0 -1 -2 -2 -0 -1 -1 -1 -1 -0 -0 -0 -0 -2 -1 -1 -3 -2 -2 -5 -15 -3 -0 -1 -1 -1 -0 -1 -1 -0 -0 -0 -0 -2 -1 -1 -0 -0 -0 -0 -0 -0 -0 -0 -0 -0 -0 -0
-0 -0 -0 -0 -0 -0 -0 -0 -2 -2 -0 -2 -0 -1 -0 -1 -0 -0 -0 -0 -2 -1 -4 -3 -3 -12 -5 -9 -1 -4 -3 -0 -0 -1 -48 -0 -1 -0 -0 -1 -2 -1 -2 -0 -1 -1 -1 -0 -1 -1 -0 -3 -0 -0
-0 -0 -1 -0 -0 -0 -0 -0 -0 -0 -1 -3 -0 -1 -2 -1 -2 -1 -0 -0 -0 -2 -2 -2 -5 -13 -4 -1 -0 -0 -4 -0 -0 -15 -0 -0 -1 -5 -3 -1 -1 -1 -3 -11 -3 -1 -1 -12 -3 -5 -2 -2 -2 -2
-0 -0 -5 -4 -0 -0 -1 -0 -1 -0 -1 -2 -1 -3 -3 -6 -3 -1 -2 -3 -1 -1 -2 -8 -7 -3 -1 -3 -0 -1 -0 -0 -0 -0 -0 -7 -0 -3 -0 -4 -1 -4 -14 -7 -14 -5 -2 -7 -11 -2 -0 -0 -3 -0
-0 -0 -0 -0 -1 -0 -0 -0 -0 -1 -2 -1 -1 -2 -1 -7 -2 -1 -1 -1 -1 -2 -2 -1 -1 -2 -2 -2 -3 -16 -7 -1 -9 -4 -14 -0 -0 -24 -0 -18 -0 -0 -7 -21 -7 -1 -12 -24 -17 -2 -2 -0 -0 -1
-0 -1 -0 -1 -0 -2 -1 -1 -2 -1 -1 -1 -3 -1 -2 -0 -0 -4 -1 -2 -1 -0 -0 -1 -2 -10 -0 -4 -1 -0 -13 -11 -5 -9 -8 -9 -0 -0 -0 -24 -2 -10 -2 -18 -22 -15 -23 -5 -20 -6 -1 -4 -1 -1
-0 -0 -0 -1 -2 -0 -1 -4 -1 -0 -4 -0 -2 -0 -0 -0 -0 -1 -1 -0 -4 -9 -0 -2 -7 -0 -0 -2 -2 -9 -21 -32 -2 -2 -21 -11 -1 -19 -0 -23 -5 -3 -5 -1 -3 -3 -1 -3 -13 -7 -1 -1 -2 -2
-0 -0 -0 -0 -0 -0 -0 -6 -5 -3 -1 -0 -8 -0 -0 -0 -2 -1 -2 -0 -14 -9 -15 -22 -9 -13 -8 -4 -6 -7 -0 -0 -8 -8 -4 -15 -5 -5 -22 -8 -0 -0 -0 -0 -0 -2 -0 -2 -2 -2 -2 -2 -3 -3
-0 -0 -1 -0 -0 -0 -0 -0 -0 -0 -0 -0 -0 -0 -3 -0 -0 -3 -2 -6 -3 -21 -14 -5 -1 -1 -2 -0 -0 -0 -0 -3 -1 -3 -9 -23 -0 -0 -0 -48 -21 -1 -2 -11 -0 -0 -0 -0 -0 -0 -0 -2 -3 -3
-0 -0 -0 -0 -0 -0 -0 -0 -1 -0 -0 -1 -3 -6 -3 -9 -2 -19 -4 -0 -6 -3 -3 -1 -2 -7 -2 -0 -0 -0 -0 -0 -0 -2 -1 -0 -0 -0 -0 -5 -3 -0 -2 -2 -3 -11 -0 -0 -1 -1 -5 -3 -5 -3
-0 -0 -0 -0 -0 -0 -13 -1 -2 -16 -3 -1 -1 -1 -8 -3 -8 -15 -26 -7 -16 -11 -5 -0 -8 -1 -0 -0 -0 -0 -0 -0 -0 -0 -1 -0 -0 -0 -0 -0 -1 -3 -2 -0 -0 -3 -0 -2 -3 -2 -4 -1 -2 -2
-1 -0 -0 -0 -1 -1 -1 -2 -2 -2 -1 -2 -2 -2 -1 -10 -2 -17 -43 -24 -25 -41 -0 -0 -0 -0 -0 -0 -0 -0 -0 -0 -0 -0 -0 -0 -0 -0 -0 -0 -0 -0 -0 -0 -0 -0 -0 -0 -0 -2 -2 -2 -2 -2
-0 -0 -0 -0 -0 -0 -1 -0 -1 -1 -2 -1 -0 -1 -7 -2 -2 -11 -5 -5 -2 -1 -0 -0 -0 -0 -0 -0 -0 -0 -0 -0 -0 -0 -0 -0 -0 -0 -0 -0 -0 -0 -0 -0 -0 -2 -1 -1 -1 -3 -1 -2 -3 -3
Wind_Speed
23 23 23 23 23 23 23 23 23 23 23 23 22 21 20 20 20 20 20 20 22 27 29 22 24 25 25 26 28 19 24 24 29 31 33 36 38 38 38 33 34 35 34 32 32 34 34 26 23 26 26 27 32 36
24 24 24 24 25 24 24 24 24 24 24 24 24 23 21 21 20 20 20 20 23 26 26 23 27 27 26 24 26 25 27 25 25 27 28 30 38 36 38 40 32 31 30 29 26 29 21 24 27 27 26 32 33 34
25 25 26 26 26 26 26 26 26 26 25 25 25 24 23 22 21 19 20 21 21 25 30 28 29 19 22 25 24 29 27 26 25 27 34 35 37 34 37 33 36 28 23 25 28 25 22 25 28 26 30 31 29 28
26 26 27 27 27 27 27 27 27 27 27 27 26 24 23 22 21 20 18 20 21 22 24 19 19 22 21 21 21 24 28 24 25 25 29 30 33 26 29 29 28 24 23 25 28 28 28 22 26 28 29 27 27 27
28 28 28 28 28 28 28 28 29 29 28 28 27 25 23 22 22 21 20 18 17 19 21 20 17 17 16 17 20 20 19 21 20 21 22 26 25 26 24 25 27 24 23 24 26 24 25 28 29 29 27 27 28 30
29 29 29 29 29 30 30 30 30 30 30 30 28 25 23 21 19 20 17 16 19 20 20 22 16 17 17 16 16 15 13 16 19 21 22 21 20 21 23 24 20 19 20 22 24 26 28 28 25 24 26 29 29 31
30 31 31 30 30 30 31 31 31 31 31 30 27 24 21 18 19 20 19 18 21 20 18 20 19 14 15 12 13 10 12 16 19 20 20 22 19 16 23 25 17 19 22 23 23 25 26 22 26 28 27 28 29 31
31 31 31 31 31 32 32 32 32 33 33 31 27 24 21 20 19 18 15 20 20 19 19 20 18 17 12 14 14 15 14 15 16 19 18 20 17 20 24 19 18 20 24 22 20 24 25 27 27 29 31 32 34 34
31 32 32 32 32 33 33 33 33 33 33 30 26 23 20 18 18 16 22 21 18 19 20 19 19 15 11 15 15 14 17 19 15 18 18 17 18 20 19 18 20 22 23 24 24 25 26 28 29 30 31 32 33 35
32 32 32 33 33 33 33 33 34 34 32 28 22 19 18 17 22 22 17 15 14 14 18 19 17 17 13 11 12 16 13 17 19 16 15 18 19 17 16 19 20 22 23 24 26 27 28 29 30 30 32 33 34 36
31 31 32 32 33 33 33 33 32 32 25 21 21 20 23 23 20 18 19 18 15 18 15 17 15 17 13 15 14 15 17 17 19 16 17 17 16 14 16 18 19 20 22 23 24 25 27 29 31 33 34 34 34 35
30 31 31 32 32 32 32 32 30 26 24 26 26 25 22 19 18 19 18 16 17 18 14 14 11 16 13 15 16 15 17 16 19 16 18 18 15 15 17 20 21 22 23 25 25 27 28 29 30 31 32 33 32 28
30 30 30 31 32 32 32 30 29 29 29 19 19 19 18 17 20 19 17 17 17 15 13 12 11 11 13 13 15 15 16 17 17 18 19 18 15 18 20 21 23 24 25 27 28 30 31 29 27 27 28 26 26 25
29 29 30 31 31 31 28 29 29 26 21 20 20 22 20 19 20 18 19 16 14 14 10 11 11 13 13 12 15 16 16 18 20 21 20 15 17 18 21 23 26 28 29 31 32 33 34 29 23 22 18 14 17 20
28 29 30 31 27 26 28 29 29 22 21 22 21 22 21 21 19 18 18 17 14 13 11 12 14 15 13 16 15 17 18 19 18 21 17 14 18 21 24 27 28 28 30 32 34 34 29 27 25 17 17 18 24 25
27 29 26 20 22 26 29 28 23 20 21 22 22 23 22 22 19 17 15 13 12 11 13 16 15 17 16 17 16 16 19 19 17 16 19 20 21 25 26 27 27 27 30 31 32 32 31 27 27 25 24 27 28 27
21 21 18 21 24 28 26 20 19 21 22 23 24 24 24 23 20 15 17 14 14 14 13 14 17 16 16 17 17 16 17 18 18 20 22 23 24 25 25 25 25 29 30 30 29 26 29 27 27 26 23 25 23 25
20 18 18 21 23 24 17 18 21 22 25 25 26 23 22 23 20 19 18 17 16 15 17 17 16 16 17 18 17 15 16 19 20 21 22 24 25 23 24 26 28 29 29 29 27 30 32 33 30 27 24 23 23 24
19 19 20 21 20 19 20 19 20 24 24 23 25 25 24 23 22 22 18 18 19 19 17 17 19 20 20 19 21 20 19 20 22 23 25 21 20 23 25 26 26 27 27 27 28 28 30 32 31 27 24 22 23 24
24 25 25 22 19 18 19 19 19 22 23 20 23 25 24 24 21 21 21 20 18 18 20 20 21 21 19 18 16 20 22 23 22 22 19 19 22 21 22 23 24 24 26 25 26 27 28 29 30 28 27 25 23 23
16 16 17 16 16 18 20 20 20 20 22 23 22 22 24 22 24 24 23 20 21 22 22 20 20 17 16 18 21 21 21 19 18 18 18 19 19 20 21 21 22 22 23 24 25 25 27 26 25 25 25 24 23 23
15 15 16 17 18 18 21 21 20 20 21 21 21 21 22 23 23 23 22 23 24 22 22 21 18 13 15 17 18 17 16 16 16 17 16 15 16 18 18 20 22 22 23 24 24 25 25 24 23 23 24 23 19 24
14 15 16 17 17 18 20 17 20 19 20 19 19 20 20 20 20 15 20 23 23 21 21 19 17 17 18 17 17 15 14 14 16 15 14 14 14 15 16 20 22 22 21 23 23 23 23 22 23 23 26 25 26 26
13 17 18 18 20 19 18 18 19 19 20 21 20 22 21 19 17 20 23 21 19 17 14 14 14 14 14 15 16 14 13 13 14 14 15 14 14 15 18 18 18 19 21 23 22 21 19 22 23 25 27 28 27 27
14 17 17 18 17 17 17 17 17 18 20 19 20 19 18 15 19 20 20 17 14 11 12 10 12 15 15 15 14 13 13 14 15 16 14 12 13 16 18 20 19 22 18 20 20 23 23 24 27 25 24 26 28 29
18 18 18 17 17 18 18 18 18 20 20 20 20 20 19 20 19 19 17 14 12 11 11 13 13 12 14 14 13 12 13 13 15 17 15 11 11 13 15 17 16 18 19 21 23 23 23 23 24 25 25 23 25 28
19 18 19 19 19 19 19 19 20 20 18 19 19 20 21 21 18 17 16 14 10 11 12 12 13 14 14 14 14 15 18 19 18 18 11 10 10 11 11 13 17 19 22 22 21 22 24 21 23 20 24 25 26 26
19 18 17 17 18 18 19 17 18 18 16 16 18 20 18 18 18 17 16 14 15 16 13 12 11 11 12 13 15 16 17 15 15 15 14 14 12 12 13 11 14 18 20 22 25 26 27 25 23 23 24 24 25 25
19 19 20 19 18 18 19 18 19 16 17 17 17 18 18 19 21 22 19 15 13 10 11 11 11 11 12 14 16 18 19 19 17 15 12 11 10 15 21 19 15 16 19 18 20 23 24 23 24 23 24 24 24 25
20 20 18 18 19 20 19 18 18 19 19 19 15 15 15 15 16 15 15 12 9 10 12 12 12 11 13 14 16 17 18 19 17 17 15 14 12 13 17 16 18 20 21 22 20 18 19 18 15 17 24 26 25 26
19 20 19 19 19 18 20 19 18 23 21 18 14 12 14 13 15 15 13 12 13 12 11 10 10 11 13 13 14 16 18 20 20 19 18 17 16 16 16 14 16 18 20 21 21 22 24 24 24 25 25 25 26 27
20 20 18 17 19 20 21 23 22 21 21 21 17 14 14 13 15 16 15 16 12 10 11 10 10 13 15 17 17 18 19 21 22 21 21 20 20 20 18 19 20 20 21 21 22 23 24 24 24 24 24 25 26 27
21 20 20 19 19 20 21 21 21 20 22 21 20 18 8 13 15 19 17 13 5 11 13 12 11 13 16 15 18 19 20 21 23 23 24 23 22 22 22 22 21 21 21 22 22 23 23 24 24 25 25 26 26 26
Wind_Direction
307 308 309 310 311 310 311 311 312 313 313 311 307 301 294 290 288 276 271 278 269 259 262 273 266 261 263 262 262 290 279 280 277 277 276 276 279 282 291 300 302 301 302 305 310 310 310 334 329 323 327 330 328 327
304 305 306 308 309 309 310 310 310 309 310 309 306 300 293 289 287 282 272 284 278 266 269 283 275 274 274 279 276 282 277 286 287 284 285 288 283 288 291 294 301 303 305 308 314 317 326 327 328 328 330 327 328 329
300 302 305 306 307 308 308 309 309 308 307 306 303 298 292 286 284 285 280 289 280 276 272 272 273 283 283 279 284 278 286 288 292 294 287 287 287 295 292 296 298 309 316 310 313 321 320 323 328 331 330 329 331 333
299 298 299 302 304 305 306 307 308 307 306 306 301 293 287 282 279 285 289 294 283 282 275 283 295 286 290 287 287 285 283 299 297 301 292 291 290 305 299 305 307 312 320 317 314 311 315 324 333 332 332 333 335 336
299 298 298 299 301 303 303 304 305 306 306 306 302 294 286 278 275 276 283 295 300 283 282 289 303 296 299 295 290 288 288 292 299 299 298 295 300 304 307 307 309 314 316 315 315 328 324 321 326 330 332 332 332 333
296 298 298 297 298 300 301 302 303 303 304 305 302 296 292 287 287 279 291 298 298 293 286 286 300 299 300 301 299 295 290 295 297 300 300 305 311 313 311 310 320 325 326 323 320 323 324 323 327 330 330 329 330 330
296 294 295 297 298 297 298 300 301 301 301 302 298 294 297 300 293 283 288 294 294 289 290 289 294 305 298 306 311 308 300 300 299 300 302 304 312 317 311 309 322 329 328 327 327 328 327 334 329 329 329 329 330 329
295 296 294 295 297 298 298 298 299 299 298 298 294 291 297 298 296 296 305 300 297 288 288 288 294 301 301 296 299 300 301 303 304 301 309 308 310 315 311 320 327 329 329 331 332 332 329 328 330 330 330 329 328 327
295 294 295 295 294 296 299 299 299 297 295 290 290 295 303 305 300 308 295 297 297 287 285 289 289 302 314 295 301 308 300 300 310 306 307 314 309 309 323 325 329 332 332 330 332 332 333 331 330 331 331 331 330 329
293 293 293 294 295 295 297 300 301 298 292 283 294 300 296 305 299 296 312 308 303 297 290 288 297 301 306 309 307 306 314 304 307 315 324 312 307 325 333 333 333 332 333 334 331 332 334 333 333 333 332 332 331 330
295 293 293 293 294 295 297 299 300 300 299 303 295 293 294 296 300 300 295 294 299 293 296 288 293 296 305 301 304 308 312 315 311 316 320 318 321 335 338 339 341 339 337 337 336 335 335 334 333 332 332 331 331 332
294 294 293 292 293 294 295 298 301 302 302 294 288 292 293 296 293 291 292 295 293 292 302 296 294 299 313 304 304 315 309 317 311 328 320 318 332 337 340 338 337 338 338 336 336 334 333 333 332 331 332 333 334 336
293 293 292 292 291 291 292 294 297 294 291 299 294 291 291 290 283 285 285 291 291 299 302 300 305 308 317 309 309 314 311 309 323 315 315 323 337 341 339 339 337 337 338 336 334 331 330 331 332 333 334 337 339 341
291 291 291 290 289 289 291 291 293 296 291 284 283 279 278 281 281 284 287 299 304 305 303 300 310 306 312 313 313 310 313 316 313 312 314 335 339 339 339 336 335 335 334 333 332 332 333 336 336 336 337 342 346 347
289 290 289 286 290 291 290 289 286 289 284 277 278 275 275 282 287 293 292 292 297 297 302 302 306 304 311 308 313 312 313 310 315 321 333 345 341 336 334 334 335 336 335 333 331 333 343 343 342 346 346 345 346 347
288 288 287 294 293 290 288 287 283 282 279 274 272 275 277 281 280 285 286 291 300 296 299 299 300 301 301 307 308 306 310 311 321 329 332 335 337 333 335 337 338 338 334 334 333 335 340 345 339 341 344 342 343 346
288 288 294 294 293 288 287 287 282 275 273 271 270 270 274 278 281 283 280 291 289 286 288 298 296 296 311 305 304 310 309 319 323 325 327 331 332 333 338 341 341 339 339 338 338 344 342 345 343 342 346 348 351 351
282 292 292 295 295 288 287 282 278 274 269 268 268 271 270 271 276 278 278 282 280 281 287 290 302 295 301 302 304 314 317 318 323 325 328 329 331 337 338 339 339 340 341 341 346 341 341 341 343 343 346 348 355 355
280 283 285 290 294 289 281 280 276 270 268 272 270 270 271 271 271 274 278 279 274 283 288 292 292 292 293 300 300 308 315 319 320 323 324 335 341 339 340 342 345 347 350 352 349 354 358 359 357 360 5 358 2 352
269 269 272 279 286 282 278 277 277 271 270 274 271 268 268 267 272 270 270 271 272 274 277 283 286 294 301 310 316 312 314 317 321 322 330 340 339 344 349 350 350 351 351 2 5 1 5 8 8 11 18 23 13 5
284 284 284 286 280 271 271 273 271 273 274 270 272 271 268 268 265 266 266 268 267 268 274 280 286 300 306 312 313 314 317 320 324 327 331 335 342 346 348 354 360 4 2 1 2 4 3 5 14 21 21 21 18 12
282 280 275 269 267 266 264 265 269 273 270 270 270 268 268 267 266 265 267 263 264 269 272 281 290 304 310 309 313 321 328 331 330 329 336 346 349 352 355 357 357 359 360 1 3 3 7 9 10 15 14 14 21 9
279 273 268 273 270 267 268 274 268 267 267 269 268 269 268 270 270 275 271 267 267 270 272 280 289 296 301 311 313 320 326 332 334 337 342 346 352 358 0 357 356 359 4 2 3 5 8 13 11 11 4 5 4 2
280 261 264 263 249 261 268 269 270 271 271 268 271 270 271 272 276 273 271 273 275 267 273 288 291 295 301 307 311 318 324 330 336 343 343 350 353 352 347 357 3 5 3 0 4 5 12 13 13 8 2 357 2 2
264 261 267 264 270 274 277 281 275 271 269 271 272 273 277 281 271 274 276 276 283 277 280 284 285 291 296 308 315 321 322 326 331 335 343 353 354 347 343 345 350 348 4 10 6 358 4 358 352 360 6 4 359 358
248 250 252 260 265 263 268 269 270 266 267 263 261 263 267 264 268 269 276 283 283 278 279 279 287 296 301 311 316 321 325 332 333 330 337 350 355 353 352 354 4 2 3 2 357 354 355 359 358 353 359 7 7 360
242 251 248 251 254 256 258 264 260 257 259 256 256 249 242 248 262 273 274 280 293 293 289 297 298 298 301 305 316 320 319 318 326 334 359 1 356 355 2 2 358 2 3 4 6 4 357 4 3 6 0 359 1 2
236 240 249 252 254 260 260 263 251 248 253 256 251 244 249 251 250 263 261 273 273 264 289 304 315 325 326 325 328 329 334 347 346 350 352 349 342 348 352 2 6 2 1 358 356 354 351 356 2 0 1 1 2 5
225 222 223 233 246 244 232 237 238 250 243 235 241 241 248 251 247 227 234 260 283 307 310 316 320 333 347 344 341 338 331 330 346 352 0 3 356 339 337 341 353 8 2 7 11 8 9 9 8 7 5 7 7 7
214 214 218 223 227 225 227 243 242 231 226 237 253 234 234 264 247 246 253 269 291 298 298 311 336 352 356 10 4 358 356 359 358 350 3 8 5 3 340 355 357 360 360 359 6 15 17 16 21 16 4 4 8 5
207 198 196 201 214 225 216 215 216 217 233 243 255 240 221 224 220 229 245 237 244 269 303 312 315 325 342 343 7 11 17 21 22 13 15 27 27 22 18 23 16 10 4 6 7 6 2 3 5 5 8 8 8 8
217 200 217 217 209 212 215 197 203 214 222 224 246 256 236 248 238 215 230 222 249 307 359 334 339 7 22 26 18 17 16 18 16 10 1 3 7 6 16 12 13 10 10 12 13 11 9 10 12 14 14 13 9 10
190 195 202 214 207 198 201 208 200 213 213 221 223 231 296 240 217 197 208 170 14 358 21 15 7 4 15 22 43 41 36 33 29 24 18 14 9 2 9 10 18 19 17 16 16 18 19 18 17 14 13 12 12 14